[[{"header":{"parameterUnit":"m.s-1","parameterCategory":1,"la1":30.2991,"la2":30.254,"lo1":-89.0895,"lo2":-89.0444,"dy":0.0017,"dx":0.0017,"nx":28,"ny":28,"refTime":"2023-09-12T09:00:00:Z","depth":0,"parameterNumber":2,"parameterNumberName":"U-component_of_WINDS"},"data":[0,0,0,0,0,0,0,0,0,0,0,0,0,0,0,0,0,0,0,0,0,0,0,0,0,0,0,0,0,0,0,0,0,0,0,0,0,0,0,0,0,0,0,0,0,0,0,0,0,0,0,0,0,0,0,0,0,0,2.7443,2.7443,0,2.7461,2.7461,2.7461,2.7484,2.7484,2.7485,2.7485,2.7495,2.7495,2.7495,0,0,0,0,0,0,0,0,0,0,0,0,0,2.7422,2.7422,2.7443,2.7443,2.7443,2.7461,2.7461,2.7461,2.7484,2.7484,2.7485,2.7485,2.7495,2.7495,2.7495,0,0,0,0,0,0,0,0,0,0,0,0,0,2.7434,2.7422,2.7443,2.7457,2.7458,2.7461,2.7461,2.7461,2.7484,2.7484,2.7485,2.7486,2.7495,2.7495,2.7495,2.7482,0,0,2.7494,2.7494,0,0,0,0,0,0,0,0,2.7433,2.7435,2.7454,2.7456,2.7457,2.7471,2.7457,2.7468,2.7484,2.7474,2.7485,2.7486,2.7486,2.7487,2.7488,2.7483,2.7483,2.7494,2.7494,2.7494,2.7494,0,0,0,0,0,0,0,2.7433,2.7434,2.745,2.7455,2.7457,2.746,2.7463,2.7459,2.7476,2.7475,2.7476,2.7479,2.7487,2.7489,2.7489,2.7483,2.7494,2.7494,2.7494,2.7494,2.7471,2.747,0,0,0,0,0,0,2.7431,2.7433,2.7449,2.745,2.7447,2.746,2.7463,2.7466,2.7476,2.7479,2.7478,2.748,2.7489,2.7489,2.7489,2.7477,2.7494,2.7494,2.7494,2.7471,2.7471,2.747,0,0,0,0,0,0,2.743,2.7432,2.7448,2.7442,2.7445,2.746,2.7463,2.7466,2.7468,2.7479,2.7481,2.7477,2.7489,2.7489,2.7485,2.7477,2.7494,2.7494,2.7472,2.7471,2.747,2.745,0,0,0,0,0,0,2.7429,2.7431,2.7428,2.7442,2.7445,2.7445,2.7463,2.7466,2.7468,2.7471,2.7479,2.7481,2.7489,2.7485,2.7485,2.7477,2.7494,2.7472,2.7471,2.747,2.7451,2.7449,2.7446,0,0,0,0,0,2.7429,2.7419,2.7427,2.7429,2.7441,2.7445,2.7446,2.7459,2.7468,2.7464,2.7472,2.748,2.7479,2.7484,2.7484,2.7477,2.7473,2.7472,2.7471,2.7453,2.7449,2.7446,0,0,0,0,0,0,2.7398,2.7421,2.743,2.7426,2.7434,2.7449,2.7443,2.7455,2.7457,2.7459,2.7473,2.7474,2.7468,2.7472,2.7478,2.7466,2.7477,2.7476,2.7464,2.7461,2.7458,2.7456,2.7494,0,0,0,0,0,2.7392,2.7396,2.7414,2.7408,2.7412,2.7427,2.7429,2.7439,2.7446,2.7449,2.7456,2.7461,2.7462,2.7462,2.7463,2.7453,2.7455,2.7448,2.7445,2.7443,2.7441,2.7438,2.7435,2.7466,2.7466,2.7466,0,0,2.7377,2.739,2.739,2.7402,2.7409,2.7411,2.7429,2.7429,2.743,2.7448,2.7445,2.7451,2.7457,2.7451,2.7448,2.7454,2.7434,2.7442,2.744,2.7439,2.7436,2.7433,2.7431,2.7465,2.7465,2.7465,0,0,2.7351,2.7361,2.7358,2.7367,2.738,2.7391,2.739,2.7405,2.7411,2.7409,2.7423,2.7424,2.7424,2.7429,2.7431,2.7413,2.7421,2.7413,2.7398,2.7395,2.7392,2.739,2.7384,2.7381,2.7411,2.7411,2.7411,0,2.7329,2.7335,2.7354,2.7356,2.736,2.7381,2.7378,2.7384,2.7395,2.7397,2.7405,2.7409,2.7414,2.741,2.7406,2.7407,2.7406,2.741,2.7392,2.739,2.7388,2.7382,2.7379,2.741,2.741,2.741,2.741,0,2.7309,2.7313,2.7309,2.7324,2.7328,2.7327,2.7345,2.7347,2.7358,2.7368,2.7367,2.7375,2.738,2.738,2.7388,2.7377,2.7381,2.739,2.7401,2.7384,2.7378,2.7376,2.7408,2.7409,2.7409,2.7409,0,0,2.7259,2.729,2.7288,2.7296,2.7314,2.7316,2.7317,2.7325,2.7327,2.7335,2.7334,2.7337,2.7347,2.735,2.736,2.7357,2.7343,2.7367,2.7367,2.7362,2.7332,2.7324,2.7321,2.735,2.7349,2.7349,2.7331,0,2.7236,2.724,2.726,2.7258,2.7262,2.7285,2.7285,2.7295,2.7306,2.7309,2.732,2.7322,2.7334,2.7337,2.7335,2.7345,2.7337,2.7346,2.7348,2.7348,2.7344,2.7318,2.731,2.7292,2.7329,2.7329,2.7329,0,2.7207,2.7219,2.7219,2.7241,2.7243,2.7243,2.7254,2.7258,2.727,2.7278,2.7284,2.7297,2.7298,2.731,2.7311,2.7317,2.7319,2.7324,2.7324,2.7323,2.7336,2.7316,2.7287,2.7284,2.7325,2.7326,2.7326,0,2.7172,2.7187,2.719,2.7196,2.7221,2.7221,2.7231,2.7245,2.725,2.7258,2.7262,2.7269,2.7273,2.7278,2.7292,2.73,2.7291,2.7304,2.7296,2.7296,2.7291,2.7291,2.7261,2.7295,2.7295,2.7295,2.7295,0,2.7142,2.714,2.7175,2.7175,2.7175,2.7198,2.7197,2.7208,2.7221,2.7224,2.7243,2.7245,2.7265,2.7268,2.7279,2.7279,2.728,2.7285,2.7288,2.7283,2.7282,2.7283,2.7284,2.7294,2.7294,2.7294,2.7294,0,2.71,2.7123,2.7127,2.7154,2.716,2.7159,2.718,2.7181,2.7196,2.7199,2.7201,2.7222,2.7228,2.7244,2.7252,2.726,2.7255,2.7261,2.7252,2.7254,2.7245,2.7245,2.7213,2.721,2.7246,2.7246,2.7246,0,2.7079,2.7079,2.7108,2.7113,2.7124,2.7132,2.7139,2.7162,2.7168,2.7185,2.7184,2.7193,2.7201,2.7209,2.7223,2.723,2.7236,2.7225,2.7236,2.7233,2.7235,2.7235,2.7235,2.7221,2.722,2.722,2.722,0,2.7039,2.7052,2.7063,2.7079,2.7088,2.71,2.7113,2.7116,2.7142,2.7148,2.7157,2.7163,2.7176,2.7183,2.7194,2.7202,2.7214,2.7217,2.7215,2.7209,2.7204,2.7206,2.7244,2.7216,2.7217,2.7217,2.7217,2.7217,2.7006,2.7009,2.7031,2.7043,2.7057,2.707,2.7074,2.7091,2.71,2.7115,2.7128,2.7135,2.715,2.7167,2.7174,2.7179,2.7186,2.7183,2.7183,2.7181,2.7179,2.7205,2.7181,2.7181,2.7182,2.7182,2.7182,0,2.6967,2.6984,2.6995,2.7016,2.7026,2.7044,2.706,2.7066,2.7074,2.7089,2.7099,2.711,2.7119,2.7136,2.7146,2.7147,2.7153,2.7149,2.7148,2.715,2.7173,2.7173,2.7144,2.7144,2.7144,2.7144,2.7144,2.7144,2.6947,2.6954,2.697,2.6984,2.7,2.7011,2.7019,2.7031,2.7044,2.7057,2.7066,2.7079,2.7095,2.7108,2.7116,2.7121,2.7123,2.7117,2.7123,2.7144,2.7148,2.7151,2.7151,2.7118,2.7118,2.71,2.7099,2.7099]},{"header":{"parameterUnit":"m.s-1","parameterCategory":1,"la1":30.2991,"la2":30.254,"lo1":-89.0895,"lo2":-89.0444,"dy":0.0017,"dx":0.0017,"nx":28,"ny":28,"refTime":"2023-09-12T09:00:00:Z","depth":0,"parameterNumber":3,"parameterNumberName":"V-component_of_WINDS"},"data":[0,0,0,0,0,0,0,0,0,0,0,0,0,0,0,0,0,0,0,0,0,0,0,0,0,0,0,0,0,0,0,0,0,0,0,0,0,0,0,0,0,0,0,0,0,0,0,0,0,0,0,0,0,0,0,0,0,0,2.6678,2.6681,0,2.6948,2.6951,2.6954,2.6964,2.6961,2.6958,2.6955,2.7224,2.7234,2.7244,0,0,0,0,0,0,0,0,0,0,0,0,0,2.6159,2.6169,2.6678,2.6681,2.6685,2.6948,2.6951,2.6955,2.6965,2.6961,2.6957,2.6953,2.7221,2.7233,2.7245,0,0,0,0,0,0,0,0,0,0,0,0,0,2.6402,2.6172,2.6677,2.6721,2.6728,2.6947,2.6952,2.6956,2.6966,2.6961,2.6956,2.6951,2.7217,2.7232,2.7247,2.7438,0,0,2.7293,2.73,0,0,0,0,0,0,0,0,2.6388,2.6421,2.6712,2.6719,2.6727,2.6918,2.6867,2.7117,2.6967,2.6875,2.6955,2.6949,2.7126,2.7148,2.7209,2.745,2.7462,2.7295,2.7304,2.7311,2.7315,0,0,0,0,0,0,0,2.6371,2.6409,2.6785,2.6716,2.6725,2.6724,2.6753,2.6915,2.7024,2.6883,2.6884,2.6916,2.7129,2.7194,2.7216,2.7466,2.7294,2.7308,2.7317,2.7323,2.7871,2.7876,0,0,0,0,0,0,2.6347,2.6395,2.6776,2.6793,2.6542,2.6737,2.677,2.6861,2.7022,2.7042,2.692,2.6916,2.7171,2.7198,2.7225,2.7457,2.731,2.7325,2.7334,2.7865,2.7872,2.7878,0,0,0,0,0,0,2.6336,2.6381,2.6765,2.6595,2.6643,2.6751,2.6854,2.6869,2.6935,2.7051,2.7069,2.6968,2.7168,2.7204,2.7384,2.7466,2.7332,2.7346,2.7859,2.7867,2.7875,2.7923,0,0,0,0,0,0,2.6321,2.6377,2.6454,2.6596,2.6653,2.6924,2.6859,2.6878,2.6962,2.6959,2.7101,2.7119,2.7167,2.7361,2.7399,2.7485,2.7358,2.7852,2.7863,2.7872,2.7915,2.7932,2.7946,0,0,0,0,0,2.6303,2.6457,2.6458,2.6504,2.6752,2.6928,2.696,2.7014,2.6969,2.7045,2.7118,2.7115,2.745,2.738,2.7423,2.7514,2.7847,2.786,2.7872,2.7907,2.7928,2.7946,0,0,0,0,0,0,2.6321,2.6476,2.648,2.6685,2.6793,2.693,2.7028,2.7035,2.7157,2.7149,2.7207,2.7239,2.7418,2.7483,2.7402,2.7704,2.7643,2.7664,2.7655,2.7676,2.7692,2.7673,2.737,0,0,0,0,0,2.6348,2.6482,2.661,2.6778,2.6832,2.692,2.7,2.7031,2.7145,2.719,2.7277,2.7385,2.7514,2.7598,2.7724,2.7922,2.7951,2.8006,2.8021,2.8034,2.8052,2.8157,2.8182,2.7918,2.7917,2.7917,0,0,2.6408,2.6509,2.659,2.6784,2.6872,2.7005,2.6959,2.7104,2.7202,2.7211,2.7388,2.7454,2.7578,2.7767,2.7854,2.7827,2.8131,2.8049,2.8059,2.807,2.8172,2.8197,2.8219,2.7926,2.7924,2.7923,0,0,2.6584,2.6675,2.6824,2.6912,2.7045,2.7102,2.7137,2.7272,2.7317,2.7494,2.7503,2.7617,2.784,2.7927,2.8,2.8201,2.8201,2.8239,2.8323,2.8425,2.8446,2.8465,2.8534,2.8558,2.8257,2.8257,2.8257,0,2.6641,2.6846,2.6899,2.7043,2.7126,2.714,2.7289,2.737,2.7537,2.7592,2.7559,2.7835,2.792,2.8127,2.8175,2.8235,2.8274,2.8225,2.8439,2.8458,2.8476,2.8543,2.8569,2.8261,2.826,2.826,2.8259,0,2.6906,2.7047,2.715,2.7312,2.7406,2.7551,2.7623,2.771,2.7731,2.7789,2.7966,2.8067,2.8212,2.8262,2.8285,2.8472,2.845,2.8427,2.8367,2.8505,2.8568,2.8594,2.8266,2.8265,2.8264,2.8263,0,0,2.7108,2.7292,2.733,2.7401,2.7545,2.7654,2.7795,2.7938,2.8011,2.8122,2.8241,2.8426,2.8404,2.8487,2.8517,2.8606,2.8755,2.8572,2.8576,2.8602,2.8963,2.898,2.9009,2.8754,2.876,2.8764,2.8952,0,2.7299,2.7557,2.7606,2.7829,2.7957,2.7968,2.8091,2.8191,2.8247,2.836,2.8421,2.855,2.8513,2.8562,2.8651,2.8718,2.8828,2.8705,2.8863,2.8868,2.8833,2.9043,2.9063,2.9236,2.8977,2.8982,2.8985,0,2.7559,2.7678,2.7913,2.8036,2.8091,2.8202,2.8333,2.8443,2.8553,2.8587,2.8676,2.8695,2.8838,2.8769,2.8965,2.888,2.8946,2.8988,2.8995,2.9014,2.8936,2.9066,2.9293,2.9319,2.9025,2.9022,2.9019,0,2.768,2.7898,2.8067,2.8127,2.8275,2.8352,2.8416,2.8521,2.8602,2.8714,2.8766,2.8893,2.8963,2.9059,2.9109,2.9055,2.93,2.9236,2.9329,2.9328,2.9383,2.9379,2.9624,2.9424,2.9424,2.9423,2.9423,0,2.789,2.8033,2.8123,2.8227,2.8385,2.8436,2.8591,2.8653,2.8745,2.8858,2.8873,2.8978,2.9038,2.915,2.9189,2.9343,2.9374,2.9403,2.9412,2.9403,2.9399,2.9448,2.9438,2.943,2.9429,2.9427,2.9426,0,2.8055,2.8121,2.8304,2.8427,2.8461,2.8572,2.8676,2.8774,2.8827,2.8969,2.9004,2.9088,2.9219,2.9278,2.944,2.9466,2.9641,2.9642,2.9605,2.9609,2.9698,2.9689,2.9984,3.0024,2.9797,2.9799,2.9801,0,2.8185,2.8296,2.8429,2.8507,2.8573,2.8698,2.8779,2.8831,2.8914,2.9044,2.9125,2.9257,2.9366,2.9574,2.9647,2.9769,2.9772,2.9867,2.9791,2.9776,2.9773,2.9766,2.9775,2.9881,2.9884,2.9886,2.9887,0,2.8409,2.8435,2.8553,2.8682,2.8778,2.8882,2.8982,2.9043,2.911,2.9202,2.9337,2.9421,2.9585,2.9714,2.984,2.9901,2.9905,2.9909,2.9937,2.993,2.9904,2.9918,2.9643,2.9904,2.9902,2.9901,2.99,2.9899,2.8561,2.8657,2.8766,2.8895,2.8976,2.9068,2.9166,2.923,2.9344,2.9483,2.9505,2.9648,2.9748,2.9917,2.9983,3.0092,3.0069,3.011,3.012,3.013,3.0134,2.9885,3.0115,3.0114,3.0114,3.0114,3.0113,0,2.8785,2.8853,2.8972,2.9112,2.9212,2.9206,2.9315,2.9399,2.9525,2.9619,2.9725,2.9877,3.0,3.008,3.0204,3.0276,3.028,3.0306,3.0302,3.0315,3.0149,3.0112,3.0301,3.0301,3.0301,3.0301,3.03,3.03,2.8913,2.9076,2.9113,2.9313,2.938,2.9522,2.9584,2.9667,2.9742,2.9912,3.0015,3.0066,3.0153,3.0282,3.0393,3.0413,3.0457,3.0485,3.0504,3.0347,3.0328,3.0309,3.0275,3.0495,3.0495,3.0661,3.0663,3.0664]}]]